Voltar ao catálogo

STARLINK-33855

AtivoComunicaçõesVLEO
NORAD 64335·PAYLOAD·🇺🇸 United States

Lançado Jun 10, 2025 de Cape Canaveral Space Force Station

Loading…

Próximas Passagens (próximas 24 horas)

TLE

AtualizadoSource: CelesTrak SupGP

Época: Sep 15, 2026, 03:21 UTC

1 64335C 25124U   26258.14006944  .00064254  00000+0  23275-2 0  2585
2 64335  43.0008 131.6251 0001717 269.2180 186.0179 15.27542396    18

Acompanhe STARLINK-33855 em tempo real com AllMySat

Download on the App Store